Retour au catalogue

STARLINK-34722

ActifCommunicationsSSO
NORAD 64851·PAYLOAD·🇺🇸 United States

Lancé Jul 19, 2025 depuis Vandenberg Space Force Base

Loading…

Prochains Passages (prochaines 24 heures)

TLE

FraisSource: CelesTrak SupGP

Époque: Sep 15, 2026, 02:35 UTC

1 64851C 25152K   26258.10812500 -.00004318  00000+0 -13400-3 0  2585
2 64851  97.2833 108.7422 0002424  79.3800  72.6530 15.33452668    18

Suivez STARLINK-34722 en temps réel avec AllMySat

Download on the App Store